Regional Weather Roundup
Issued by NWS Upton, NY

Current Version | Previous Version | Graphics & Text | Print | Product List | Glossary Off
Versions: 1 2 3 4 5 6 7 8 9 10 11 12 13 14 15 16 17 18 19 20 21 22 23 24 25

000
ASUS41 KOKX 291009
RWROKX

REGIONAL WEATHER ROUNDUP
NATIONAL WEATHER SERVICE NEW YORK NY
600 AM EDT THU JUN 29 2017

NOTE: "FAIR" INDICATES FEW OR NO CLOUDS BELOW 12,000 FEET WITH NO
SIGNIFICANT WEATHER AND/OR OBSTRUCTIONS TO VISIBILITY.

NYZ071-072-176-178-NJZ106-104-291100-
NEW YORK CITY METRO AREA

CITY           SKY/WX    TMP DP  RH WIND       PRES   REMARKS
Central Park   MOCLDY    68  56  65 VRB6      30.18S
Bronx Bot Gard   N/A     68  54  60 SE1       30.16R
LaGuardia APRT MOCLDY    69  58  67 SW8       30.15S
Kennedy INTL   CLOUDY    68  60  75 SW12      30.17S
Breezy Point     N/A     64 N/A N/A SW5         N/A
Newark/Liberty CLOUDY    66  56  70 SW7       30.15F
Teterboro      CLOUDY    65  55  70 CALM      30.15S
$$

NYZ177-179-078>081-291100-
LONG ISLAND NEW YORK

CITY           SKY/WX    TMP DP  RH WIND       PRES   REMARKS
Jones Beach      N/A     64 N/A N/A SW2         N/A
Matinecock PT  NOT AVBL
Farmingdale    CLOUDY    65  56  72 SW5       30.16F
MacArthur/ISP  CLOUDY    64  57  78 SW5       30.16S
Shirley        MOCLDY    66  57  72 CALM      30.17S
Mt Sinai Harb    N/A    N/A N/A N/A SW5         N/A
Westhampton    PTCLDY    59  54  83 SW3       30.18F
East Hampton   FAIR      63  55  75 CALM      30.16S
Montauk          N/A     67  58  72 SW6       30.17R
$$

NYZ052-065-067-291100-
HUDSON VALLEY

CITY           SKY/WX    TMP DP  RH WIND       PRES   REMARKS
White Plains   CLOUDY    63  53  70 CALM      30.15S
Larchmont Harb   N/A     68 N/A N/A SW6         N/A
Croton O-T Hud   N/A     66 N/A N/A MISG        N/A
Newburgh       MOCLDY    64  54  68 CALM      30.15S
Montgomery     CLOUDY    62  54  74 CALM      30.13S
Poughkeepsie   CLOUDY    60  55  83 CALM      30.12S
Albany         CLOUDY    62  53  72 S5        30.11R
$$

NJZ001-105-106-008-010-013-015-019>022-104-291100-
NEW JERSEY

CITY           SKY/WX    TMP DP  RH WIND       PRES   REMARKS
Newark/Liberty CLOUDY    66  56  70 SW7       30.15F
Teterboro      CLOUDY    65  55  70 CALM      30.15S
Caldwell       MOCLDY    64  54  69 CALM      30.16S
Somerville     CLOUDY    58  56  93 CALM      30.15R
Linden         FAIR      65  56  71 CALM      30.17S
Perth Amboy      N/A     64 N/A N/A W5          N/A
Sussex         CLOUDY    58  56  93 CALM      30.15S
Andover          N/A     58  55  90 SW3       30.15F
Trenton        CLOUDY    63  57  81 CALM      30.16S
Millville      CLOUDY    63  62  97 CALM      30.18R
Atlantic City  CLOUDY    63  57  81 SW6       30.19R
Wrightstown    PTCLDY    60  57  91 S3        30.15S
Toms River     PTCLDY    58  56  93 SW3       30.19R
Belmar         CLEAR     62  57  83 S6        30.19S
$$

PAZ047>061-062-071-291100-
EASTERN PENNSYLVANIA

CITY           SKY/WX    TMP DP  RH WIND       PRES   REMARKS
Philadelphia   CLOUDY    66  58  75 S6        30.17R
Allentown      CLOUDY    62  53  72 CALM      30.15R
Scranton       PTCLDY    64  52  64 CALM      30.14R
$$

CTZ002-004>006-009-010-012-RIZ004-006-007-MAZ004-011-015-291100-
SOUTHERN NEW ENGLAND
 IN CT

CITY           SKY/WX    TMP DP  RH WIND       PRES   REMARKS
Bradley INTL   CLOUDY    63  55  75 S6        30.13R
Hartford       MOCLDY    63  57  81 CALM      30.14R
Danbury        NOT AVBL
Wtrbury/Oxford CLOUDY    61  48  63 CALM      30.17R
Bridgeport     CLOUDY    68  58  70 SW3       30.15S
Meriden        CLOUDY    58  57  97 CALM      30.15R
New Haven      CLOUDY    67  58  72 SW3       30.16R
Chester        FAIR      63  57  82 CALM      30.16R
Groton         CLOUDY    65  60  84 SW3       30.15R
Wilimantic     MOCLDY    58  55  90 CALM      30.15R

 IN RI

CITY           SKY/WX    TMP DP  RH WIND       PRES   REMARKS
Providence     CLOUDY    64  58  80 W8        30.14R
Block Island   PTCLDY    64  59  83 SW8       30.17R
Westerly       CLOUDY    65  62  90 SW3       30.16R
 IN MA

CITY           SKY/WX    TMP DP  RH WIND       PRES   REMARKS
Boston         CLOUDY    63  56  78 SW9       30.11R
Worcester      PTCLDY    60  50  69 W10       30.14R
Westfield      CLOUDY    58  56  93 CALM        N/A
Provincetown   MOCLDY    62  59  90 SW9       30.13R
Nantucket      CLEAR     64  63  96 W13       30.16R
$$

ANZ330-335-338-340-345-350-353-355-291100-
COASTAL MARINE OBSERVATIONS


STATION/POSITION TIME  SKY/WX   TEMP    WIND        PRES    VSBY  WAVE
                                AIR SEA DIR/SP/G                  HT/PER
                 (UTC)          (F)     (DEG/KT/KT) (MB)    (MI)  (FT/S)
NY HARB ENTRANCE 0850            67 67  230/ 10/ 12 1021.2          2/ 5
20 S FIRE ISLAND 0950            68 69  250/ 12/ 14 1021.5          3/ 5
GREAT SOUTH BAY  0930            69 74  250/ 10/ 14   N/A
23 SSW MONTAUK P 0850            67 66              1021.4          4/ 6
15 E BARNEGAT LI 0930               64                N/A           3/ 5
HUDSON CANYON    0850            69 68  250/ 10/ 12 1021.9          3/ 5
KINGS POINT      0936            68 65  240/  7/  9 1020.8
EXECUTION ROCKS  0945            67     180/  4/  6   N/A
CENTRAL LI SOUND 0945            68     230/ 12/ 14   N/A           1
EASTERN LI SOUND NOT AVBL
ROBBINS REEF     0936                   260/  8/ 10 1021.5
$$


>>>>>>>>>>>>>>>>>>>>>>>>>>>> KEY <<<<<<<<<<<<<<<<<<<<<<<<<<<
>                                                          <
>     SKY/WX - Sky Condition/Present Weather               <
>     TMP    - Temperature in Fahrenheit                   <
>     DP     - Dew Point in Fahrenheit                     <
>     RH     - Relative Humidity in Percent                <
>     WIND   - Direction (from) and Speed in MPH           <
>     PRES   - Mean Sea Level Pressure (inches of Hg)      <
>     WCI    - Wind Chill Index                            <
>     VSB    - VISIBILITY IN MILES                         <
>     HX     - HEAT INDEX                                  <
>     TC     - TEMPERATURE IN CELSIUS                      <
>     VRB    - VARIABLE WIND DIRECTION                     <
>                                                          <
>>>>>>>>>>>>>>>>>>>>>>>>>>>> KEY <<<<<<<<<<<<<<<<<<<<<<<<<<<




USA.gov is the U.S. government's official web portal to all federal, state and local government web resources and services.